Location: Home
(42.5358°N, 72.7383°W)
Time: 06:31:37
(UTC-04:00)

Explorer 11/Cluster Stage 4 - Pass Details

Date: 17 April 2025
Orbit: 463 x 1190 km, 28.8° (Epoch: 13 May)

Event Time Altitude Azimuth Distance (km) Brightness Sun altitude
Rises 08:15:39 0° 227° (SW) 2,974 9.2 22.8°
Reaches altitude 10° 08:19:56 10° 191° (S) 1,879 8.6 23.6°
Maximum altitude 08:21:05 11° 176° (S) 1,775 8.6 23.8°
Drops below altitude 10° 08:22:11 10° 160° (SSE) 1,794 8.9 24.0°
Sets 08:25:54 0° 122° (ESE) 2,565 10.3 24.7°
